Regional Weather Roundup
Issued by NWS

Home | Current Version | Previous Version | Graphics & Text | Print | Product List | Glossary On
Versions: 1 2 3 4 5 6 7 8 9 10 11 12 13 14 15 16 17 18 19 20 21 22 23 24 25 26 27 28 29 30 31 32 33 34 35 36 37 38 39 40 41 42 43 44 45 46 47 48 49 50
000
ASUS43 KMPX 011710
RWRMN
WEATHER ROUNDUP FOR MINNESOTA
NATIONAL WEATHER SERVICE TWIN CITIES/CHANHASSEN MN
1200 PM CDT MON SEP 01 2014


NOTE: "FAIR" INDICATES FEW OR NO CLOUDS BELOW 12,000 FEET WITH NO
SIGNIFICANT WEATHER AND/OR OBSTRUCTIONS TO VISIBILITY. N/A MEANS
CURRENT SKY AND/OR WEATHER CONDITIONS ARE NOT AVAILABLE.

MNZ060>063-068>070-011800-
   Twin Cities Metro

CITY           SKY/WX    TMP DP  RH WIND       PRES   REMARKS
TWIN CITIES    PTSUNNY   73  62  68 W8        29.73R
ST PAUL        PTSUNNY   73  62  68 NW12      29.72R
CRYSTAL        PTSUNNY   73  61  65 W12       29.71R
BLAINE         MOSUNNY   73  64  73 W6        29.72R
LAKEVILLE      PTSUNNY   72  63  73 W9        29.73R
EDEN PRAIRIE   PTSUNNY   72  62  71 NW9       29.73R
SOUTH ST PAUL  PTSUNNY   72  61  67 W9        29.72R
LAKE ELMO      CLOUDY    70  63  78 NW9       29.73R
$$
MNZ001>005-007-008-013>017-022>024-027-028-011800-
   Northwest Minnesota

CITY           SKY/WX    TMP DP  RH WIND       PRES   REMARKS
BEMIDJI        PTSUNNY   65  53  64 NW16      29.72R
HALLOCK        SUNNY     70  55  60 CALM      29.69S
ROSEAU         SUNNY     68  57  68 NW9       29.68S
WARROAD        MOSUNNY   66  57  72 NW8       29.68R
THIEF RVR FALL SUNNY     64  55  72 W7        29.72S
CROOKSTON      SUNNY     68  57  68 CALM      29.72S
FOSSTON        SUNNY     68  54  60 NW8       29.74R
DETROIT LAKES  SUNNY     64  55  72 NW3       29.77R
MOORHEAD       SUNNY     70  61  73 W3        29.75R
PARK RAPIDS    SUNNY     68  50  52 NW18      29.73R
MAHNOMEN       FAIR      64  56  74 CALM      29.74S
$$
MNZ006-009>011-018-025>026-011800-
   North Central Minnesota

CITY           SKY/WX    TMP DP  RH WIND       PRES   REMARKS
BAUDETTE       PTSUNNY   64  54  69 NW16G22   29.66R
FLAG ISLAND    MOSUNNY   63  54  72 NW12      29.65S
INTL FALLS     LGT RAIN  60  59  96 NW7       29.64R
WASKISH        PTSUNNY   64  55  72 W6        29.69R
BIG FORK       MOSUNNY   66  54  63 W6        29.67R
LONGVILLE      MOSUNNY   66  54  63 W9G17     29.71R
GRAND RAPIDS   MOSUNNY   66  52  59 W12G21    29.68R
CRANE LAKE     CLOUDY    63  57  82 NW6       29.63R
ORR            CLOUDY    61  57  88 W6        29.62S FOG
COOK           DRIZZLE   63  59  88 W8        29.65R
WALKER         FAIR      65  52  63 W12G17    29.71R
$$
MNZ012-019>021-037-011800-
   Northeast Minnesota

CITY           SKY/WX    TMP DP  RH WIND       PRES   REMARKS
DULUTH         CLOUDY    64  56  75 NW14G22   29.66R
ELY            PTSUNNY   64  55  72 NW9       29.62R
HIBBING        CLOUDY    66  56  70 NW8       29.66R
EVELETH        CLOUDY    63  54  72 W12       29.66R
DULUTH HARBOR  CLOUDY    68  61  77 NW15      29.65R
TWO HARBORS    CLOUDY    64  55  72 W9G16     29.62R
SILVER BAY     CLOUDY    63  61  94 W5        29.60R
GRAND MARAIS     N/A     68  63  84 W5        29.55R
G MARAIS ARPRT CLOUDY    63  55  77 W7        29.59S
$$
MNZ029>031-032-039>041-046>048-054>057-064-011800-
   West Central Minnesota

CITY           SKY/WX    TMP DP  RH WIND       PRES   REMARKS
FERGUS FALLS   SUNNY     68  55  64 NW5       29.76R
WHEATON        SUNNY     70  57  64 W7        29.79R
MORRIS         SUNNY     72  59  64 NW8       29.77R
ALEXANDRIA     SUNNY     70  55  59 NW14G21   29.78R
ELBOW LAKE     FAIR      68  57  68 W7        29.77R
WADENA         SUNNY     68  55  64 W10       29.75R
GLENWOOD       SUNNY     72  57  60 NW10      29.77R
APPLETON       SUNNY     73  57  56 NW8       29.78R
BENSON         MOSUNNY   73  61  64 NW7       29.77R
ORTONVILLE     SUNNY     72  55  56 NW7       29.78S
MADISON        SUNNY     73  59  60 NW7       29.79R
WILLMAR        FAIR      72  57  60 NW13G20   29.78R
$$
MNZ033>034-036-042>043-049>051-058-059-011800-
   Central Minnesota

CITY           SKY/WX    TMP DP  RH WIND       PRES   REMARKS
ST CLOUD       MOSUNNY   74  56  53 NW13G23   29.72R
SAUK CENTRE    FAIR      70  55  60 NW9G18    29.76R
PAYNESVILLE    SUNNY     69  53  57 W13       29.76R
AITKIN         MOSUNNY   70  57  64 NW6       29.69S
PINE RIVER     MOSUNNY   68  55  64 W9        29.75R
BRAINERD       MOSUNNY   65  54  67 NW6G16    29.72S
STAPLES        SUNNY     68  54  60 NW12G18   29.74R
LONG PRAIRIE   FAIR      70  54  56 NW10      29.75R
LITTLE FALLS   MOSUNNY   70  52  52 W10       29.73R
LITCHFIELD     MOSUNNY   73  59  60 W10       29.76R
BUFFALO        MOSUNNY   71  59  66 W7        29.74R
MAPLE LAKE     MOSUNNY   71  62  71 W9        29.75R
$$
MNZ037-044-045-052-053-011800-
   East Central Minnesota

CITY           SKY/WX    TMP DP  RH WIND       PRES   REMARKS
PRINCETON      PTSUNNY   73  61  64 NW10      29.72R
MORA           MOSUNNY   70  59  68 NW9       29.72S
CAMBRIDGE      PTSUNNY   73  57  56 W9        29.70R
RUSH CITY      PTSUNNY   70  59  67 NW6G16    29.71R
MOOSE LAKE     CLOUDY    64  55  72 NW9       29.67S
HINCKLEY       CLOUDY    68  59  73 W7        29.70R
CLOQUET        CLOUDY    64  57  77 W10       29.68R
MCGREGOR       PTSUNNY   64  57  77 W5        29.70S
$$
MNZ071>073-080-081-089-090-097-098-011800-
   Southwest Minnesota

CITY           SKY/WX    TMP DP  RH WIND       PRES   REMARKS
MONTEVIDEO     SUNNY     73  64  73 N8        29.79R
GRANITE FALLS  SUNNY     71  59  66 NW9       29.80R
CANBY          SUNNY     73  56  54 NW6       29.80S
MARSHALL       SUNNY     73  55  53 NW10      29.79R
REDWOOD FALLS  SUNNY     73  57  57 N13       29.78R
OLIVIA         SUNNY     73  59  60 NW12      29.77R
PIPESTONE      MOSUNNY   72  61  68 W6        29.83R
WINDOM         SUNNY     73  61  64 W7        29.81R
WORTHINGTON    MOSUNNY   72  59  64 W8        29.84R
JACKSON        PTSUNNY   72  61  68 W8        29.82R
TRACY          SUNNY     73  61  64 NW7       29.81R
SLAYTON        PTSUNNY   71  60  68 CALM      29.83R
$$
MNZ065>067-074>077-082>085-091>093-011800-
   South Central Minnesota

CITY           SKY/WX    TMP DP  RH WIND       PRES   REMARKS
MANKATO        PTSUNNY   72  61  68 W10       29.76R
NEW ULM        SUNNY     72  61  68 NW10G18   29.77R
ST JAMES       MOSUNNY   75  61  60 W9        29.79R
FAIRMONT       MOSUNNY   72  59  64 NW9       29.79S
GLENCOE        MOSUNNY   73  60  63 W10       29.75R
FARIBAULT      MOSUNNY   75  59  57 W8        29.75R
OWATONNA       MOSUNNY   72  63  73 W7        29.76R
WASECA         PTSUNNY   72  61  68 W9        29.78R
ALBERT LEA     MOSUNNY   72  64  78 W6        29.77R
$$
MNZ078>079-086>088-094>096-011800-
   Southeast Minnesota

CITY           SKY/WX    TMP DP  RH WIND       PRES   REMARKS
ROCHESTER      HVY RAIN  64  60  87 NW14      29.77R FOG
RED WING       MOSUNNY   75  63  64 W10       29.70R
STANTON        PTSUNNY   73  61  65 W9        29.72R
DODGE CENTER   MOSUNNY   70  66  88 W12       29.75S
WINONA         PTSUNNY   73  63  68 W7        29.70S
AUSTIN         LGT RAIN  70  63  78 NW10G18   29.76R
PRESTON        PTSUNNY   72  68  87 W3        29.75R
$$
ABBREVIATIONS USED IN REMARKS
   TC - TEMPERATURES IN CELSIUS
  WCI - WIND CHILL INDEX
   HX - HEAT INDEX
  VSB - VISIBILITY
$$


USA.gov is the U.S. government's official web portal to all federal, state and local government web resources and services.